Weather History for Randolph AFB, TX

Change the Weather History Date:

Thursday, April 3, 2014

  Actual Average Record
Temperature  
Mean Temperature 75 °F -  
Max Temperature 83 °F 73 °F 89 °F (2006)
Min Temperature 68 °F 55 °F 42 °F (2009)
Cooling Degree Days 10    
Growing Degree Days 25 (Base 50)    
Moisture  
Dew Point 67 °F    
Average Humidity 81    
Maximum Humidity 94    
Minimum Humidity 60    
Precipitation  
Precipitation 0.00 in - - ()
Sea Level Pressure  
Sea Level Pressure 29.75 in    
Wind  
Wind Speed 9 mph (SSE)    
Max Wind Speed 16 mph    
Max Gust Speed 18 mph    
Visibility 9 miles    
Events      
Averages and records for this station are not official NWS values.
T = Trace of Precipitation, MM = Missing Value Source: NWS Daily Summary

Daily Weather History Graph

Daily Weather History Graph

Search for Another Location

Airport:

Trip Planner

Search our weather history database for the weather conditions in past years. The results will help you decide how hot, cold, wet, or windy it might be!

Date:

Astronomy

Apr. 03, 2014 Rise Set
Actual Time 7:20 AM CDT 7:52 PM CDT
Civil Twilight 6:56 AM CDT 8:16 PM CDT
Nautical Twilight 6:28 AM CDT 8:45 PM CDT
Astronomical Twilight 5:59 AM CDT 9:13 PM CDT
Moon 10:05 AM CDT (4/3) 11:58 PM CDT (4/3)
Length of Visible Light 13h 20m
Length of Day
12h 32m
Waxing Crescent, 17% of the Moon is Illuminated
Apr 3
Waxing Crescent
Apr 7
First Quarter
Apr 15
Full
Apr 22
Last Quarter
Apr 29
New

Hourly Weather History & Observations

Time (CDT) Temp. Heat Index Dew Point Humidity Pressure Visibility Wind Dir Wind Speed Gust Speed Precip Events Conditions
12:58 AM 70.9 °F - 68.2 °F 91% 29.74 in 10.0 mi SSE 9.2 mph - N/A   Clear
1:58 AM 71.6 °F - 68.0 °F 88% 29.73 in 10.0 mi SSE 12.7 mph - N/A   Mostly Cloudy
2:08 AM 71.6 °F - 68.0 °F 88% 29.76 in 10.0 mi SSE 11.5 mph - N/A   Scattered Clouds
2:13 AM 71.6 °F - 68.0 °F 88% 29.76 in 10.0 mi SSE 9.2 mph - N/A   Mostly Cloudy
2:28 AM 71.6 °F - 68.0 °F 88% 29.76 in 10.0 mi SSE 11.5 mph - N/A   Mostly Cloudy
2:48 AM 71.6 °F - 68.0 °F 88% 29.76 in 10.0 mi South 8.1 mph - N/A   Scattered Clouds
2:58 AM 71.1 °F - 67.8 °F 89% 29.73 in 10.0 mi SSE 9.2 mph - N/A   Scattered Clouds
3:58 AM 71.2 °F - 67.5 °F 88% 29.73 in 10.0 mi SSE 8.1 mph - N/A   Partly Cloudy
4:13 AM 71.6 °F - 68.0 °F 88% 29.75 in 10.0 mi SSE 10.4 mph - N/A   Mostly Cloudy
4:33 AM 71.6 °F - 68.0 °F 88% 29.75 in 10.0 mi SE 9.2 mph - N/A   Scattered Clouds
4:58 AM 70.5 °F - 67.1 °F 89% 29.74 in 10.0 mi SSE 8.1 mph - N/A   Partly Cloudy
5:48 AM 71.6 °F - 66.2 °F 83% 29.77 in 9.0 mi South 6.9 mph - N/A   Scattered Clouds
5:50 AM 71.6 °F - 66.2 °F 83% 29.77 in 6.0 mi South 5.8 mph - N/A   Overcast
5:58 AM 71.2 °F - 66.9 °F 86% 29.76 in 10.0 mi SSW 6.9 mph - N/A   Overcast
6:58 AM 69.1 °F - 66.0 °F 90% 29.76 in 10.0 mi SSE 6.9 mph - N/A   Overcast
7:21 AM 68.0 °F - 64.4 °F 88% 29.78 in 9.0 mi SE 5.8 mph - N/A   Mostly Cloudy
7:43 AM 68.0 °F - 66.2 °F 94% 29.78 in 8.0 mi SE 8.1 mph - N/A   Mostly Cloudy
7:58 AM 68.5 °F - 66.4 °F 93% 29.76 in 9.0 mi SE 9.2 mph - N/A   Overcast
8:56 AM 71.6 °F - 66.2 °F 83% 29.80 in 5.0 mi SSE 10.4 mph - N/A   Overcast
8:58 AM 71.1 °F - 67.1 °F 87% 29.78 in 5.0 mi South 10.4 mph - N/A   Overcast
9:22 AM 71.6 °F - 66.2 °F 83% 29.80 in 5.0 mi South 8.1 mph - N/A   Overcast
9:58 AM 72.7 °F - 66.6 °F 81% 29.79 in 5.0 mi South 12.7 mph - N/A   Overcast
10:58 AM 75.4 °F - 66.9 °F 75% 29.78 in 10.0 mi SSE 16.1 mph - N/A   Overcast
11:58 AM 76.6 °F - 66.2 °F 70% 29.77 in 10.0 mi South 11.5 mph - N/A   Overcast
12:58 PM 78.1 °F - 66.0 °F 66% 29.76 in 10.0 mi South 11.5 mph - N/A   Overcast
1:32 PM 80.6 °F 82.7 °F 66.2 °F 61% 29.76 in 10.0 mi South 13.8 mph - N/A   Overcast
1:58 PM 79.3 °F - 65.8 °F 63% 29.74 in 10.0 mi South 9.2 mph - N/A   Overcast
2:58 PM 80.8 °F 82.9 °F 66.2 °F 61% 29.72 in 10.0 mi South 8.1 mph - N/A   Mostly Cloudy
3:58 PM 81.1 °F 83.2 °F 66.2 °F 60% 29.69 in 10.0 mi South 5.8 mph - N/A   Overcast
4:58 PM 81.7 °F 84.2 °F 67.1 °F 61% 29.66 in 10.0 mi ESE 10.4 mph - N/A   Mostly Cloudy
5:58 PM 82.9 °F 86.0 °F 68.2 °F 61% 29.67 in 10.0 mi SSE 10.4 mph 18.4 mph N/A   Clear
6:58 PM 81.5 °F 84.4 °F 68.4 °F 64% 29.68 in 10.0 mi SE 12.7 mph - N/A   Clear
7:58 PM 77.0 °F - 68.5 °F 75% 29.68 in 10.0 mi SSE 11.5 mph - N/A   Clear
8:58 PM 72.9 °F - 67.8 °F 84% 29.73 in 10.0 mi ESE 4.6 mph - 0.00 in   Clear
10:58 PM 71.2 °F - 68.5 °F 91% 29.77 in 10.0 mi ESE 5.8 mph - N/A   Clear
11:18 PM 69.8 °F - 68.0 °F 94% 29.81 in 9.0 mi ESE 3.5 mph - N/A   Clear
11:58 PM 69.6 °F - 67.6 °F 93% 29.79 in 7.0 mi East 2.3 mph - N/A   Clear